Starlink 3635

operational
NORAD ID: 51981 Int'l Des: 2022-025 Owner: SPXS Country: US Constellation: starlink
LEOCIRCULAR

About Starlink 3635

Description loading...

Live Position

Loading 3D Globe...

Upcoming Passes

Altitude History

Altitude vs Time

uPlot chart will show altitude changes over time

Two-Line Element Set

1 51981U 22025AB 25352.47123703 .00000348 00000-0 39952-4 0 9996
2 51981 53.2189 43.7248 0001230 85.7972 274.3160 15.08846344208798
Epoch: Dec 18, 2025 • Age: 18 hours

Current Status

Altitude 542.1 km
Velocity 7.59 km/s
Sub-Earth Point -7.57°S, 53.4°E
Launch Date Mar 9, 2022
Age 3.7 years
Type internet

Technical Details

Classification Payload
Mass 297.00 kg
Dry Mass 275.00 kg
Total Mass 297.00 kg
Length 0.20 m
Diameter 2.80 m
Span 9.00 m
Shape Box + pan
Manufacturer SPXS
Bus Type Starlink
Phase Status In Orbit
Owner/State SPXS/US

Large Constellations

Loading constellations...